Flag for United Kingdom Weather past 2 weeks in Bolton, England, United Kingdom

Now
48 °F

Passing clouds.


Feels Like: 44 °F
Forecast: 37 / 61 °F
Wind: 9 mph from East

Location: Manchester Airport


UV Index: 0 (Low)

Visibility: N/A


Pressure: 30.07 "Hg

Humidity: 71%

Dew point: 39 °F

Location of BoltonLocation

Historic Weather in Bolton

°F

Bolton temperature yesterday

Maximum temperature yesterday: 57 °F (at 4:20 PM)
Minimum temperature yesterday: 34 °F (at 4:20 AM)
Average temperature yesterday: 46 °F

Past Weeks' High & Low Weather Summary

 TemperatureHumidityPressure
High61 °F (Apr 6, 1:50 PM)100% (Apr 7, 5:50 AM)30.45 "Hg (Apr 7, 5:50 AM)
Low34 °F (Apr 18, 4:20 AM)36% (Apr 18, 1:50 PM)29.53 "Hg (Apr 7, 1:50 PM)
Average49 °F75%30.07 "Hg
* Reported Apr 4 7:20 PM — Apr 19 7:50 PM, Bolton, Weather by CustomWeather, © 2014

Note: Actual official high and low records may vary slightly from our data, if they occured in-between our weather recording intervals... More about our weather records

Advertising

Historic Weather Conditions — Data for Previous 24 hours

 ConditionsComfort  
Time TempWeatherWind HumidityBarometerVisibility
7:50 PM
Apr 19
50 °FCool.10 mph67%30.07 "HgN/A
7:20 PM52 °FPassing clouds.13 mph62%30.07 "HgN/A
6:50 PM54 °FPassing clouds.8 mph54%30.07 "HgN/A
6:20 PM54 °FPassing clouds.10 mph54%30.07 "HgN/A
5:50 PM55 °FPassing clouds.9 mph51%30.07 "HgN/A
5:20 PM54 °FPassing clouds.10 mph54%30.09 "HgN/A
4:50 PM54 °FPassing clouds.8 mph54%30.09 "HgN/A
4:20 PM54 °FPartly sunny.12 mph54%30.09 "HgN/A
3:50 PM54 °FScattered clouds.10 mph58%30.09 "HgN/A
3:20 PM52 °FScattered clouds.8 mph58%30.09 "HgN/A
2:50 PM52 °FScattered clouds.12 mph58%30.12 "HgN/A
2:20 PM50 °FCloudy.10 mph62%30.12 "HgN/A
1:50 PM50 °FPartly sunny.12 mph58%30.12 "HgN/A
1:20 PM50 °FBroken clouds.13 mph58%30.12 "HgN/A
12:50 PM48 °FBroken clouds.10 mph62%30.12 "HgN/A
12:20 PM46 °FScattered clouds.12 mph66%30.15 "HgN/A
11:50 AM46 °FScattered clouds.9 mph66%30.15 "HgN/A
11:20 AM46 °FScattered clouds.7 mph62%30.15 "HgN/A
10:50 AM45 °FScattered clouds.13 mph66%30.15 "HgN/A
10:20 AM45 °FScattered clouds.13 mph66%30.15 "HgN/A
9:50 AM45 °FScattered clouds.13 mph66%30.15 "HgN/A
9:20 AM45 °FScattered clouds.10 mph66%30.15 "HgN/A
8:50 AM43 °FScattered clouds.13 mph71%30.15 "HgN/A
8:20 AM43 °FPassing clouds.8 mph76%30.15 "HgN/A
7:50 AM41 °FPassing clouds.6 mph81%30.15 "HgN/A
7:20 AM39 °FSunny.6 mph81%30.15 "Hg10 mi
6:50 AM36 °FClear.7 mph87%30.12 "Hg10 mi
6:20 AM34 °FClear.8 mph87%30.12 "Hg10 mi
5:50 AM34 °FClear.No wind93%30.12 "Hg10 mi
5:20 AM34 °FClear.6 mph93%30.12 "Hg10 mi
4:50 AM36 °FClear.2 mph87%30.12 "Hg10 mi
4:20 AM36 °FClear.5 mph93%30.12 "Hg10 mi
3:50 AM36 °FClear.5 mph87%30.15 "Hg10 mi
3:20 AM37 °FClear.3 mph87%30.15 "Hg10 mi
2:50 AM37 °FChilly.5 mph87%30.15 "HgN/A
2:20 AM39 °FChilly.3 mph81%30.15 "HgN/A
1:50 AM39 °FChilly.3 mph81%30.15 "HgN/A
1:20 AM41 °FClear.5 mph76%30.15 "Hg10 mi
12:50 AM41 °FClear.5 mph76%30.18 "Hg10 mi
12:20 AM41 °FClear.8 mph81%30.18 "Hg10 mi
11:50 PM
Apr 18
39 °FPassing clouds.7 mph75%30.18 "HgN/A
11:20 PM45 °FClear.3 mph61%30.18 "Hg10 mi
10:50 PM45 °FClear.No wind61%30.18 "Hg10 mi
10:20 PM45 °FClear.2 mph66%30.15 "Hg10 mi
9:50 PM45 °FClear.3 mph66%30.15 "Hg10 mi
9:20 PM48 °FClear.6 mph58%30.15 "Hg10 mi
8:50 PM48 °FSunny.7 mph58%30.15 "Hg10 mi
8:20 PM50 °FSunny.8 mph54%30.15 "Hg10 mi
Weather by CustomWeather, © 2014

See weather overview